Date String (YYYY-MM-DD hh:mm:ss) UTC,Instrument flags,Ambient pressure (hPa),Sample flow (lpm),Bypass flow (lpm),Sample temperature (°C),Ambient temperature (°C),ASC tube jacket temperature (°C),LED temperature (°C),Box temperature (°C),Sample RH (%),Span deviation,Mass concentration (μg/m³),Mass concentration (μg/m³),Mass concentration (μg/m³)
DateTimeUTC,F1_M11,P_M11,Q1_M11,Q2_M11,T1_M11,T2_M11,T3_M11,T4_M11,T5_M11,U1_M11,ZSPAN_M11,X0_M11,X2_M11,X1_M11
2023-04-07 17:00:00,,0833.2,5.00,0.00,22.9,21.5,00.0,31.1,24.4,09.9,0000.0,0009.08,0004.77,0004.00
2023-04-07 17:01:00,,0833.4,4.99,0.00,22.9,21.5,00.0,31.1,24.4,09.6,0000.0,0009.04,0004.73,0003.97
2023-04-07 17:02:00,,0833.3,5.00,0.00,22.9,21.5,00.0,31.1,24.4,09.6,0000.0,0009.37,0004.75,0003.97
2023-04-07 17:03:00,,0833.1,5.01,0.00,22.9,21.5,00.0,31.1,24.4,09.7,0000.0,0009.27,0004.70,0003.94
2023-04-07 17:04:00,,0833.0,5.00,0.00,22.9,21.4,00.0,31.1,24.4,09.4,0000.0,0009.25,0004.66,0003.90
2023-04-07 17:05:00,,0833.1,4.99,0.00,22.9,21.4,00.0,31.1,24.4,09.2,0000.0,0009.18,0004.58,0003.86
2023-04-07 17:06:00,,0833.0,5.00,0.00,22.9,21.4,00.0,31.1,24.4,09.5,0000.0,0009.01,0004.55,0003.83
2023-04-07 17:07:00,,0833.0,5.01,0.00,22.9,21.4,00.0,31.1,24.4,09.8,0000.0,0009.05,0004.56,0003.81
2023-04-07 17:08:00,,0832.9,5.01,0.00,22.9,21.4,00.0,31.1,24.4,09.8,0000.0,0009.02,0004.56,0003.79
2023-04-07 17:09:00,,0832.9,4.99,0.00,22.9,21.4,00.0,31.1,24.4,09.9,0000.0,0009.30,0004.55,0003.78
2023-04-07 17:10:00,,0832.9,5.00,0.00,22.9,21.4,00.0,31.2,24.4,09.8,0000.0,0009.47,0004.57,0003.78
2023-04-07 17:11:00,,0833.0,5.00,0.00,22.9,21.4,00.0,31.1,24.4,09.9,0000.0,0009.70,0004.60,0003.80
2023-04-07 17:12:00,,0832.9,5.00,0.00,22.9,21.4,00.0,31.1,24.4,09.9,0000.0,0010.02,0004.63,0003.82
2023-04-07 17:13:00,,0833.0,5.00,0.00,22.9,21.4,00.0,31.2,24.4,10.0,0000.0,0010.38,0004.67,0003.86
2023-04-07 17:14:00,,0833.0,4.99,0.00,22.9,21.4,00.0,31.2,24.5,09.9,0000.0,0010.70,0004.79,0003.90
2023-04-07 17:15:00,,0833.0,4.98,0.00,22.9,21.5,00.0,31.2,24.5,10.1,0000.0,0011.00,0004.89,0003.96
2023-04-07 17:16:00,,0833.0,5.01,0.00,22.9,21.5,00.0,31.2,24.5,10.3,0000.0,0012.05,0004.97,0004.01
2023-04-07 17:17:00,,0833.0,5.00,0.00,22.9,21.5,00.0,31.2,24.5,10.1,0000.0,0012.36,0005.02,0004.05
2023-04-07 17:18:00,,0832.9,4.99,0.00,22.9,21.5,00.0,31.2,24.5,10.2,0000.0,0012.53,0005.02,0004.08
2023-04-07 17:19:00,,0833.0,5.00,0.00,22.9,21.6,00.0,31.2,24.5,10.1,0000.0,0013.32,0005.04,0004.11
2023-04-07 17:20:00,,0833.3,5.00,0.00,22.9,21.6,00.0,31.2,24.5,10.2,0000.0,0013.71,0005.09,0004.12
2023-04-07 17:21:00,,0832.8,5.01,0.00,22.9,21.6,00.0,31.2,24.5,10.2,0000.0,0013.50,0005.11,0004.14
2023-04-07 17:22:00,,0832.8,5.01,0.00,23.0,21.6,00.0,31.2,24.5,10.5,0000.0,0013.45,0005.16,0004.16
2023-04-07 17:23:00,,0832.8,4.99,0.00,23.0,21.6,00.0,31.2,24.6,10.6,0000.0,0013.42,0005.18,0004.18
2023-04-07 17:24:00,,0832.8,4.99,0.00,23.0,21.6,00.0,31.2,24.5,10.3,0000.0,0012.93,0005.22,0004.18
2023-04-07 17:25:00,,0832.7,4.99,0.00,23.0,21.6,00.0,31.2,24.5,10.2,0000.0,0013.11,0005.23,0004.18
2023-04-07 17:26:00,,0832.7,5.00,0.00,23.0,21.5,00.0,31.2,24.5,10.3,0000.0,0013.36,0005.20,0004.18
2023-04-07 17:27:00,,0832.7,5.00,0.00,23.0,21.5,00.0,31.2,24.5,10.3,0000.0,0012.68,0005.22,0004.17
2023-04-07 17:28:00,,0832.7,5.00,0.00,23.0,21.5,00.0,31.2,24.5,10.4,0000.0,0012.43,0005.20,0004.16
2023-04-07 17:29:00,,0832.7,4.99,0.00,23.0,21.5,00.0,31.2,24.5,10.2,0000.0,0012.20,0005.17,0004.15
2023-04-07 17:30:00,,0832.7,4.99,0.00,23.0,21.6,00.0,31.2,24.5,10.5,0000.0,0011.67,0005.19,0004.14
2023-04-07 17:31:00,,0832.7,4.99,0.00,23.0,21.6,00.0,31.2,24.5,10.4,0000.0,0011.38,0005.20,0004.13
2023-04-07 17:32:00,,0832.7,5.00,0.00,23.0,21.6,00.0,31.2,24.5,10.5,0000.0,0011.55,0005.22,0004.13
2023-04-07 17:33:00,,0832.8,5.00,0.00,23.0,21.6,00.0,31.3,24.6,10.6,0000.0,0012.03,0005.20,0004.13
2023-04-07 17:34:00,,0832.8,5.02,0.00,23.0,21.6,00.0,31.3,24.6,10.4,0000.0,0011.89,0005.20,0004.11
2023-04-07 17:35:00,,0832.7,4.99,0.00,23.0,21.6,00.0,31.3,24.6,10.3,0000.0,0011.65,0005.11,0004.08
2023-04-07 17:36:00,,0832.9,5.00,0.00,23.0,21.6,00.0,31.3,24.6,09.9,0000.0,0011.65,0005.01,0004.04
2023-04-07 17:37:00,,0832.8,5.01,0.00,23.0,21.6,00.0,31.3,24.6,09.6,0000.0,0011.53,0004.96,0004.01
2023-04-07 17:38:00,,0832.8,4.99,0.00,23.0,21.6,00.0,31.3,24.6,09.3,0000.0,0011.17,0004.88,0003.96
2023-04-07 17:39:00,,0832.8,4.99,0.00,23.0,21.6,00.0,31.3,24.6,09.5,0000.0,0011.06,0004.81,0003.93
2023-04-07 17:40:00,,0832.7,5.01,0.00,23.0,21.6,00.0,31.3,24.6,09.6,0000.0,0010.98,0004.76,0003.89
2023-04-07 17:41:00,,0832.7,5.01,0.00,23.0,21.6,00.0,31.3,24.6,09.6,0000.0,0011.27,0004.65,0003.84
2023-04-07 17:42:00,,0832.9,5.00,0.00,23.1,21.7,00.0,31.3,24.7,09.7,0000.0,0011.25,0004.60,0003.81
2023-04-07 17:43:00,,0832.8,4.99,0.00,23.1,21.7,00.0,31.3,24.7,09.8,0000.0,0011.15,0004.50,0003.77
2023-04-07 17:44:00,,0832.7,5.00,0.00,23.1,21.7,00.0,31.3,24.6,09.4,0000.0,0010.98,0004.46,0003.74
2023-04-07 17:45:00,,0832.7,5.00,0.00,23.1,21.7,00.0,31.3,24.6,09.6,0000.0,0011.05,0004.41,0003.73
2023-04-07 17:46:00,,0832.7,5.00,0.00,23.1,21.7,00.0,31.3,24.6,09.6,0000.0,0010.99,0004.40,0003.73
2023-04-07 17:47:00,,0832.6,5.01,0.00,23.1,21.7,00.0,31.3,24.6,09.2,0000.0,0010.68,0004.41,0003.75
2023-04-07 17:48:00,,0832.6,5.00,0.00,23.1,21.7,00.0,31.3,24.6,09.5,0000.0,0010.44,0004.44,0003.78
2023-04-07 17:49:00,,0832.6,5.00,0.00,23.1,21.8,00.0,31.3,24.7,09.8,0000.0,0010.63,0004.50,0003.83
2023-04-07 17:50:00,,0832.6,4.99,0.00,23.1,21.8,00.0,31.4,24.7,09.8,0000.0,0010.67,0004.56,0003.86
2023-04-07 17:51:00,,0832.5,5.00,0.00,23.1,21.8,00.0,31.4,24.7,10.2,0000.0,0010.83,0004.65,0003.91
2023-04-07 17:52:00,,0832.5,5.01,0.00,23.1,21.8,00.0,31.4,24.7,10.2,0000.0,0010.38,0004.71,0003.95
2023-04-07 17:53:00,,0832.5,4.99,0.00,23.2,21.8,00.0,31.4,24.7,09.7,0000.0,0010.18,0004.72,0003.99
2023-04-07 17:54:00,,0832.5,5.00,0.00,23.2,21.8,00.0,31.4,24.7,10.0,0000.0,0010.32,0004.81,0004.06
2023-04-07 17:55:00,,0832.5,5.00,0.00,23.2,21.8,00.0,31.4,24.8,10.0,0000.0,0009.75,0004.84,0004.10
2023-04-07 17:56:00,,0832.6,5.00,0.00,23.2,21.8,00.0,31.4,24.7,09.6,0000.0,0010.13,0004.87,0004.12
2023-04-07 17:57:00,,0832.6,5.01,0.00,23.2,21.9,00.0,31.4,24.8,09.7,0000.0,0011.81,0004.93,0004.15
2023-04-07 17:58:00,,0832.7,5.00,0.00,23.2,21.9,00.0,31.4,24.8,09.7,0000.0,0012.12,0005.00,0004.18
2023-04-07 17:59:00,,0832.6,4.99,0.00,23.2,21.9,00.0,31.4,24.8,09.7,0000.0,0012.24,0005.06,0004.20
